カタログに戻る

STARLINK-5060

運用中通信VLEO
NORAD 55413·PAYLOAD·🇺🇸 United States

打ち上げ Jan 31, 2023 から Vandenberg Space Force Base

Loading…

次のパス (今後24時間)

TLE

最新Source: CelesTrak SupGP

元期: Sep 15, 2026, 02:35 UTC

1 55413C 23014Y   26258.10812500  .00054323  00000+0  45525-2 0  2585
2 55413  70.0013 326.6741 0003544 267.7782 320.8808 14.98302160    19

AllMySatでSTARLINK-5060をリアルタイム追跡

Download on the App Store